When you browse on this site, cookies collect data to enhance your experience and personalize the content and advertising you see.
Visit our Privacy Policy to learn more. By continuing to use the site, you agree to this use of cookies and data.
  • în România
  • Lista ţărilor
  • Pe 7 zile
  • Temperatura apei
  • Meteo pe hartă
  • Widget-uri
  • user-avatar
    Intrare

    Meteo pe oră la Coasta de Aur

    Astăzi, 22 August, Joi

    Timp Temperatura Precipitaţii Vânt Presiune Umiditate
    00:00 +11°C° 0 mm 3 m/s 757 mmHg 61%
    01:00 +11°C° 0 mm 3 m/s 757 mmHg 64%
    02:00 +10°C° 0 mm 2 m/s 757 mmHg 67%
    03:00 +10°C° 0 mm 2 m/s 757 mmHg 70%
    04:00 +10°C° 0 mm 3 m/s 757 mmHg 73%
    05:00 +10°C° 0 mm 3 m/s 757 mmHg 73%
    06:00 +10°C° 0 mm 3 m/s 757 mmHg 73%
    07:00 +10°C° 0 mm 3 m/s 757 mmHg 74%
    08:00 +13°C° 0 mm 3 m/s 757 mmHg 60%
    09:00 +18°C° 0 mm 3 m/s 757 mmHg 46%
    10:00 +22°C° 0 mm 3 m/s 756 mmHg 33%
    11:00 +24°C° 0 mm 3 m/s 756 mmHg 30%
    12:00 +25°C° 0 mm 3 m/s 755 mmHg 27%
    13:00 +26°C° 0 mm 2 m/s 754 mmHg 24%
    14:00 +26°C° 0 mm 3 m/s 754 mmHg 27%
    15:00 +26°C° 0 mm 3 m/s 754 mmHg 29%
    16:00 +25°C° 0 mm 4 m/s 754 mmHg 31%
    17:00 +21°C° 0 mm 4 m/s 755 mmHg 43%
    18:00 +18°C° 0 mm 4 m/s 756 mmHg 54%
    19:00 +14°C° 0 mm 4 m/s 757 mmHg 66%
    20:00 +14°C° 0.1 mm 5 m/s 758 mmHg 69%
    21:00 +14°C° 0.1 mm 6 m/s 759 mmHg 72%
    22:00 +14°C° 0.1 mm 7 m/s 760 mmHg 75%
    23:00 +13°C° 0 mm 6 m/s 760 mmHg 78%

    Mâine, 23 August, Vineri

    Timp Temperatura Precipitaţii Vânt Presiune Umiditate
    00:00 +11°C° 0 mm 6 m/s 761 mmHg 82%
    01:00 +10°C° 0 mm 6 m/s 761 mmHg 86%
    02:00 +9°C° 0 mm 5 m/s 761 mmHg 86%
    03:00 +8°C° 0 mm 5 m/s 761 mmHg 86%
    04:00 +7°C° 0 mm 5 m/s 761 mmHg 86%
    05:00 +7°C° 0 mm 4 m/s 762 mmHg 82%
    06:00 +8°C° 0 mm 4 m/s 763 mmHg 77%
    07:00 +8°C° 0 mm 4 m/s 763 mmHg 73%
    08:00 +11°C° 0 mm 4 m/s 764 mmHg 64%
    09:00 +14°C° 0 mm 4 m/s 764 mmHg 56%
    10:00 +18°C° 0 mm 4 m/s 764 mmHg 47%
    11:00 +19°C° 0 mm 4 m/s 764 mmHg 45%
    12:00 +19°C° 0 mm 5 m/s 763 mmHg 43%
    13:00 +20°C° 0 mm 5 m/s 763 mmHg 41%
    14:00 +20°C° 0 mm 5 m/s 763 mmHg 44%
    15:00 +19°C° 0 mm 5 m/s 763 mmHg 47%
    16:00 +19°C° 0 mm 5 m/s 763 mmHg 49%
    17:00 +16°C° 0 mm 5 m/s 763 mmHg 59%
    18:00 +14°C° 0 mm 4 m/s 764 mmHg 69%
    19:00 +12°C° 0 mm 4 m/s 765 mmHg 79%
    20:00 +11°C° 0 mm 3 m/s 765 mmHg 82%
    21:00 +11°C° 0 mm 3 m/s 765 mmHg 86%
    22:00 +10°C° 0 mm 3 m/s 765 mmHg 89%
    23:00 +10°C° 0 mm 3 m/s 765 mmHg 90%

    Poimâine, 24 August, Sâmbătă

    Timp Temperatura Precipitaţii Vânt Presiune Umiditate
    00:00 +10°C° 0 mm 2 m/s 765 mmHg 90%
    01:00 +9°C° 0 mm 2 m/s 764 mmHg 91%
    02:00 +9°C° 0 mm 2 m/s 764 mmHg 90%
    03:00 +9°C° 0 mm 2 m/s 764 mmHg 90%
    04:00 +9°C° 0 mm 2 m/s 764 mmHg 90%
    05:00 +9°C° 0 mm 2 m/s 764 mmHg 88%
    06:00 +10°C° 0 mm 2 m/s 765 mmHg 86%
    07:00 +11°C° 0 mm 1 m/s 765 mmHg 84%
    08:00 +14°C° 0 mm 1 m/s 765 mmHg 70%
    09:00 +19°C° 0 mm 1 m/s 765 mmHg 57%
    10:00 +22°C° 0 mm 1 m/s 765 mmHg 44%
    11:00 +23°C° 0 mm 2 m/s 764 mmHg 42%
    12:00 +23°C° 0 mm 2 m/s 763 mmHg 41%
    13:00 +24°C° 0 mm 3 m/s 762 mmHg 39%
    14:00 +22°C° 0 mm 3 m/s 762 mmHg 41%
    15:00 +21°C° 0 mm 4 m/s 761 mmHg 43%
    16:00 +21°C° 0 mm 4 m/s 761 mmHg 45%
    17:00 +18°C° 0 mm 4 m/s 761 mmHg 56%
    18:00 +15°C° 0 mm 4 m/s 761 mmHg 68%
    19:00 +12°C° 0 mm 3 m/s 762 mmHg 80%
    20:00 +12°C° 0 mm 3 m/s 762 mmHg 83%
    21:00 +11°C° 0 mm 3 m/s 762 mmHg 86%
    22:00 +11°C° 0 mm 3 m/s 762 mmHg 90%
    23:00 +11°C° 0 mm 3 m/s 762 mmHg 91%

    25 August, Duminică

    Timp Temperatura Precipitaţii Vânt Presiune Umiditate
    00:00 +11°C° 0 mm 3 m/s 762 mmHg 92%
    01:00 +10°C° 0 mm 3 m/s 761 mmHg 93%
    02:00 +10°C° 0 mm 3 m/s 761 mmHg 93%
    03:00 +10°C° 0 mm 3 m/s 761 mmHg 93%
    04:00 +10°C° 0 mm 3 m/s 761 mmHg 93%
    05:00 +10°C° 0 mm 3 m/s 761 mmHg 91%
    06:00 +11°C° 0 mm 3 m/s 762 mmHg 89%
    07:00 +11°C° 0 mm 3 m/s 762 mmHg 87%
    08:00 +14°C° 0 mm 3 m/s 762 mmHg 72%
    09:00 +19°C° 0 mm 3 m/s 761 mmHg 57%
    10:00 +22°C° 0 mm 3 m/s 761 mmHg 42%
    11:00 +24°C° 0 mm 3 m/s 760 mmHg 39%
    12:00 +25°C° 0 mm 4 m/s 760 mmHg 37%
    13:00 +26°C° 0 mm 4 m/s 759 mmHg 34%
    14:00 +26°C° 0 mm 4 m/s 759 mmHg 36%
    15:00 +25°C° 0 mm 4 m/s 758 mmHg 39%
    16:00 +23°C° 0 mm 4 m/s 758 mmHg 42%
    17:00 +21°C° 0 mm 3 m/s 758 mmHg 52%
    18:00 +19°C° 0 mm 3 m/s 759 mmHg 63%
    19:00 +17°C° 0 mm 3 m/s 759 mmHg 73%
    20:00 +17°C° 0 mm 3 m/s 759 mmHg 74%
    21:00 +17°C° 0 mm 3 m/s 760 mmHg 75%
    22:00 +16°C° 0 mm 3 m/s 760 mmHg 76%
    23:00 +16°C° 0 mm 3 m/s 760 mmHg 76%

    26 August, Luni

    Timp Temperatura Precipitaţii Vânt Presiune Umiditate
    00:00 +16°C° 0 mm 3 m/s 760 mmHg 75%
    01:00 +16°C° 0 mm 3 m/s 759 mmHg 74%
    02:00 +16°C° 0 mm 3 m/s 759 mmHg 74%
    03:00 +16°C° 0 mm 3 m/s 759 mmHg 74%
    04:00 +14°C° 0 mm 3 m/s 759 mmHg 74%
    05:00 +15°C° 0 mm 2 m/s 759 mmHg 75%
    06:00 +15°C° 0 mm 2 m/s 760 mmHg 75%
    07:00 +15°C° 0 mm 2 m/s 760 mmHg 75%
    08:00 +18°C° 0 mm 2 m/s 760 mmHg 63%
    09:00 +21°C° 0 mm 2 m/s 760 mmHg 50%
    10:00 +26°C° 0 mm 1 m/s 760 mmHg 37%
    11:00 +26°C° 0 mm 2 m/s 760 mmHg 38%
    12:00 +25°C° 0 mm 3 m/s 759 mmHg 39%
    13:00 +25°C° 0 mm 3 m/s 759 mmHg 40%
    14:00 +23°C° 0.1 mm 4 m/s 758 mmHg 46%
    15:00 +22°C° 0.1 mm 4 m/s 758 mmHg 53%
    16:00 +21°C° 0.1 mm 4 m/s 758 mmHg 59%
    17:00 +19°C° 0.1 mm 4 m/s 759 mmHg 66%
    18:00 +18°C° 0.1 mm 4 m/s 760 mmHg 74%
    19:00 +16°C° 0.1 mm 3 m/s 760 mmHg 81%
    20:00 +16°C° 0.2 mm 3 m/s 761 mmHg 81%
    21:00 +16°C° 0.2 mm 3 m/s 761 mmHg 80%
    22:00 +16°C° 0.2 mm 3 m/s 761 mmHg 80%
    23:00 +14°C° 0 mm 3 m/s 761 mmHg 84%

    27 August, Marţi

    Timp Temperatura Precipitaţii Vânt Presiune Umiditate
    00:00 +14°C° 0 mm 2 m/s 761 mmHg 87%
    01:00 +14°C° 0 mm 2 m/s 761 mmHg 91%
    02:00 +13°C° 0.1 mm 2 m/s 761 mmHg 91%
    03:00 +13°C° 0.1 mm 2 m/s 760 mmHg 92%
    04:00 +13°C° 0.1 mm 2 m/s 760 mmHg 93%
    05:00 +13°C° 0.1 mm 2 m/s 761 mmHg 91%
    06:00 +14°C° 0.1 mm 2 m/s 761 mmHg 89%
    07:00 +14°C° 0.1 mm 2 m/s 762 mmHg 87%
    08:00 +17°C° 0 mm 2 m/s 762 mmHg 72%
    09:00 +21°C° 0 mm 2 m/s 762 mmHg 58%
    10:00 +25°C° 0 mm 2 m/s 762 mmHg 44%
    11:00 +24°C° 0.1 mm 2 m/s 761 mmHg 49%
    12:00 +23°C° 0.1 mm 2 m/s 760 mmHg 53%
    13:00 +23°C° 0.1 mm 2 m/s 760 mmHg 58%
    14:00 +21°C° 0.2 mm 2 m/s 760 mmHg 61%
    15:00 +21°C° 0.2 mm 2 m/s 760 mmHg 64%
    16:00 +20°C° 0.2 mm 3 m/s 760 mmHg 66%
    17:00 +18°C° 0.4 mm 2 m/s 760 mmHg 74%
    18:00 +17°C° 0.4 mm 2 m/s 761 mmHg 82%
    19:00 +15°C° 0.4 mm 1 m/s 761 mmHg 90%
    20:00 +15°C° 0.6 mm 1 m/s 761 mmHg 91%
    21:00 +15°C° 0.6 mm 1 m/s 762 mmHg 91%
    22:00 +14°C° 0.6 mm 1 m/s 762 mmHg 92%
    23:00 +14°C° 0.1 mm 1 m/s 762 mmHg 92%
    Arată mai mult